TITAN 3C TRANSTAGE DEB, 1859

Orbit data source: Space-Track

TITAN 3C TRANSTAGE DEB, 1859 is space debris in LEO originally from a launch on Fri, 15 Oct 1965 UTC launched from the Air Force Eastern Test Range (AFETR). Debris objects in space refer to the collection of defunct objects orbiting the Earth. Examples of debris include non-operational satellites, rocket bodies, and fragments generated from explosions, collisions, or faulty payload assembly.

Loading next visibility...
Identifier
1859, 1965-082ES
Orbit
LEO
Country
Flag of USUS
Related business
Manufacturer
Unknown
Mission
Spacecraft
Bus & Motor
Unknown
Mass
Unknown
Launch date (UTC)
1965-10-15 (61 years ago)
Launch vehicle
Unknown
Launch site
Air Force Eastern Test Range (AFETR)
Object type
Payload
Rocket body
Debris
Shape & HBR
Unknown shape, 0.3 m
Radar Cross Section
Medium (>0.1 m² and <1 m²)

Expand to show TLE details & history
Last TLE update: 22 hours ago

TLE from 22 hours ago
0 TITAN 3C TRANSTAGE DEB
1 01859U 65082ES  26175.17438379  .00000561  00000-0  13239-3 0  9990
2 01859  32.1247 125.4702 0066554  71.2896 289.4954 14.49154666188086
Epoch: 2026-06-24T04:11Z
TLE epoch observation values (Epoch: 2026-06-24T04:11:06.759Z)
Latitude
-0.00004°
Longitude
150.35659°
Altitude
711.568 km
Speed
7.51 km/s
True Right ascension
08h 21m 52s
True Declination
0° 00' 00"
Sunlit
Object was in daylight at epoch
Visualization orbit readout
Latitude
Unknown
Longitude
Unknown
Altitude
Unknown
Speed
Unknown
Apparent Right ascension
Unknown
Apparent Declination
Unknown
Sunlit
N/A
Visualization observer readout
Local Sidereal Time
13:07:52
Azimuth
Unknown
Elevation
Unknown
Doppler factor
Unknown
Orbital elements
Apogee altitude
779.306 km
Perigee altitude
684.665 km
Semi-major axis
7,110.122 km
Eccentricity
0.00666
Inclination
32.1247°
RAAN
125.4702°
Arg. of periapsis
71.2896°
True anomaly
288.77449°
Mean anomaly
289.4954°
Eccentric anomaly
289.13514°
Mean motion
3.62016 °/min
Orbital period
99.44 mins
BSTAR
0.00013239

Documentation

Showing up to 5 results
|